Weather History for K7L2 - February, 2014

Change the Weather History Date:

Tuesday, February 18, 2014

  Actual Average (KBIS) Record (KBIS)
Temperature  
Mean Temperature 24 °F 19 °F  
Max Temperature 39 °F 29 °F 62 °F (1954)
Min Temperature 10 °F 9 °F -37 °F (1910)
Degree Days  
Heating Degree Days 40 46  
Month to date heating degree days 874  
Since 1 July heating degree days 5992  
Cooling Degree Days 0 0  
Month to date cooling degree days 0  
Year to date cooling degree days 0  
Moisture  
Dew Point 25 °F    
Average Humidity 92    
Maximum Humidity 100    
Minimum Humidity 70    
Precipitation  
Precipitation 0.00 in 0.02 in 0.36 in (1952)
Month to date precipitation 0.28  
Year to date precipitation 0.71  
Snow  
Snow 0.00 in 0.30 in 5.40 in (1949)
Month to date snowfall 4.8  
Since 1 July snowfall 34.2  
Snow Depth -    
Sea Level Pressure  
Sea Level Pressure 29.65 in    
Wind  
Wind Speed 6 mph (WSW)    
Max Wind Speed 15 mph    
Max Gust Speed -    
Visibility 10 miles    
Events Rain , Snow    
T = Trace of Precipitation, MM = Missing Value Source: NWS Daily Summary

Daily Weather History Graph

Daily Weather History Graph

Search for Another Location

Airport or City:

Trip Planner

Search our weather history database for the weather conditions in past years. The results will help you decide how hot, cold, wet, or windy it might be!

Date:

Astronomy

Feb. 18, 2014 Rise Set
Actual Time 7:39 AM CST 6:11 PM CST
Civil Twilight 7:08 AM CST 6:42 PM CST
Nautical Twilight 6:33 AM CST 7:17 PM CST
Astronomical Twilight 5:58 AM CST 7:51 PM CST
Moon 10:22 PM CST (2/18) 8:58 AM CST (2/18)
Length of Visible Light 11h 33m
Length of Day
10h 32m
Waning Gibbous, 87% of the Moon is Illuminated
Feb 18
Waning Gibbous
Feb 22
Last Quarter
Mar 1
New
Mar 8
First Quarter
Mar 16
Full

Hourly Weather History & Observations

Time (CST) Temp. Windchill Dew Point Humidity Pressure Visibility Wind Dir Wind Speed Gust Speed Precip Events Conditions
12:15 AM 28.4 °F 22.2 °F 23.0 °F 80% 29.50 in 10.0 mi SE 5.8 mph - N/A   Clear
12:35 AM 24.8 °F 17.9 °F 21.2 °F 86% 29.50 in 10.0 mi South 5.8 mph - N/A   Clear
12:55 AM 26.6 °F 20.0 °F 23.0 °F 86% 29.50 in 10.0 mi South 5.8 mph - N/A   Clear
1:15 AM 23.0 °F 17.0 °F 19.4 °F 86% 29.51 in 10.0 mi SSW 4.6 mph - N/A   Clear
1:35 AM 21.2 °F - 17.6 °F 86% 29.51 in 10.0 mi Calm Calm - N/A   Clear
1:55 AM 24.8 °F 19.1 °F 23.0 °F 93% 29.51 in 10.0 mi WSW 4.6 mph - N/A   Clear
2:15 AM 15.8 °F 10.2 °F 15.8 °F 100% 29.52 in 10.0 mi East 3.5 mph - N/A   Clear
2:35 AM 17.6 °F - 17.6 °F 100% 29.52 in 10.0 mi Calm Calm - N/A   Clear
2:55 AM 23.0 °F - 19.4 °F 86% 29.52 in 10.0 mi Calm Calm - N/A   Clear
3:15 AM 12.2 °F 6.1 °F 12.2 °F 100% 29.51 in 10.0 mi East 3.5 mph - N/A   Clear
3:35 AM 10.4 °F - 10.4 °F 100% 29.51 in 10.0 mi Calm Calm - N/A   Clear
3:55 AM 15.8 °F - 15.8 °F 100% 29.52 in 10.0 mi Calm Calm - N/A   Clear
4:15 AM 10.4 °F 4.0 °F 10.4 °F 100% 29.52 in 10.0 mi South 3.5 mph - N/A   Clear
4:35 AM 15.8 °F 7.2 °F 15.8 °F 100% 29.52 in 10.0 mi SSW 5.8 mph - N/A   Clear
4:55 AM 17.6 °F 12.3 °F 17.6 °F 100% 29.52 in 10.0 mi SSW 3.5 mph - N/A   Scattered Clouds
5:15 AM 15.8 °F 5.1 °F 15.8 °F 100% 29.52 in 10.0 mi East 8.1 mph - N/A   Mostly Cloudy
5:35 AM 15.8 °F 7.2 °F 15.8 °F 100% 29.53 in 10.0 mi East 5.8 mph - N/A   Scattered Clouds
5:55 AM 15.8 °F 8.6 °F 15.8 °F 100% 29.53 in 10.0 mi ENE 4.6 mph - N/A   Clear
6:15 AM 14.0 °F - 14.0 °F 100% 29.53 in 10.0 mi Calm Calm - N/A   Clear
6:35 AM 17.6 °F - 17.6 °F 100% 29.53 in 10.0 mi Calm Calm - N/A   Clear
6:55 AM 19.4 °F 14.3 °F 19.4 °F 100% 29.53 in 10.0 mi SE 3.5 mph - N/A   Clear
7:15 AM 10.4 °F 0.8 °F 10.4 °F 100% 29.54 in 10.0 mi NE 5.8 mph - N/A   Clear
7:35 AM 14.0 °F - 14.0 °F 100% 29.55 in 10.0 mi Calm Calm - N/A   Clear
7:55 AM 17.6 °F - 17.6 °F 100% 29.57 in 10.0 mi Calm Calm - N/A   Mostly Cloudy
8:15 AM 17.6 °F 10.7 °F 17.6 °F 100% 29.59 in 10.0 mi ENE 4.6 mph - N/A   Overcast
8:35 AM 17.6 °F - 17.6 °F 100% 29.60 in 10.0 mi Calm Calm - N/A   Overcast
8:55 AM 21.2 °F - 21.2 °F 100% 29.60 in 10.0 mi Calm Calm - N/A   Overcast
9:15 AM 24.8 °F 17.9 °F 24.8 °F 100% 29.61 in 10.0 mi WSW 5.8 mph - N/A   Overcast
9:35 AM 26.6 °F 21.2 °F 24.8 °F 93% 29.62 in 10.0 mi West 4.6 mph - N/A   Overcast
9:55 AM 28.4 °F 22.2 °F 26.6 °F 93% 29.63 in 10.0 mi West 5.8 mph - N/A   Overcast
10:15 AM 32.0 °F 24.8 °F 28.4 °F 87% 29.63 in 10.0 mi West 8.1 mph - N/A   Overcast
10:35 AM 32.0 °F 26.4 °F 28.4 °F 87% 29.64 in 10.0 mi WNW 5.8 mph - N/A   Overcast
10:55 AM 30.2 °F 25.4 °F 28.4 °F 93% 29.65 in 10.0 mi WNW 4.6 mph - N/A   Overcast
11:15 AM 33.8 °F 27.0 °F 32.0 °F 93% 29.66 in 10.0 mi West 8.1 mph - N/A   Overcast
11:35 AM 35.6 °F 28.0 °F 32.0 °F 87% 29.66 in 10.0 mi West 10.4 mph - N/A   Mostly Cloudy
11:55 AM 35.6 °F 29.2 °F 32.0 °F 87% 29.67 in 10.0 mi WNW 8.1 mph - N/A Snow Light Snow
12:15 PM 35.6 °F 29.2 °F 32.0 °F 87% 29.68 in 10.0 mi WNW 8.1 mph - N/A Rain Light Rain
12:35 PM 35.6 °F 27.5 °F 32.0 °F 87% 29.68 in 10.0 mi NW 11.5 mph - N/A   Mostly Cloudy
12:55 PM 35.6 °F 27.1 °F 32.0 °F 87% 29.68 in 10.0 mi WNW 12.7 mph - N/A   Mostly Cloudy
1:15 PM 37.4 °F 29.3 °F 32.0 °F 81% 29.69 in 10.0 mi WNW 12.7 mph - N/A   Mostly Cloudy
1:35 PM 37.4 °F 28.5 °F 32.0 °F 81% 29.69 in 10.0 mi WNW 15.0 mph - N/A   Partly Cloudy
1:55 PM 37.4 °F 30.3 °F 32.0 °F 81% 29.69 in 10.0 mi NW 10.4 mph - N/A   Clear
2:15 PM 37.4 °F 30.3 °F 32.0 °F 81% 29.70 in 10.0 mi WNW 10.4 mph - N/A   Clear
2:35 PM 39.2 °F 32.5 °F 32.0 °F 75% 29.71 in 10.0 mi WNW 10.4 mph - N/A   Clear
2:55 PM 39.2 °F 31.6 °F 30.2 °F 70% 29.72 in 10.0 mi WNW 12.7 mph - N/A   Clear
3:15 PM 39.2 °F 34.2 °F 30.2 °F 70% 29.73 in 10.0 mi WNW 6.9 mph - N/A   Clear
3:35 PM 39.2 °F 34.2 °F 30.2 °F 70% 29.74 in 10.0 mi WSW 6.9 mph - N/A   Clear
3:55 PM 39.2 °F 32.0 °F 32.0 °F 75% 29.75 in 10.0 mi West 11.5 mph - N/A   Clear
4:15 PM 39.2 °F 32.5 °F 32.0 °F 75% 29.75 in 10.0 mi West 10.4 mph - N/A   Clear
4:35 PM 37.4 °F 30.8 °F 32.0 °F 81% 29.75 in 10.0 mi West 9.2 mph - N/A   Clear
4:55 PM 37.4 °F 30.3 °F 32.0 °F 81% 29.76 in 10.0 mi West 10.4 mph - N/A   Clear
5:15 PM 37.4 °F 30.8 °F 33.8 °F 87% 29.77 in 10.0 mi WSW 9.2 mph - N/A   Clear
5:35 PM 35.6 °F 30.7 °F 33.8 °F 93% 29.77 in 10.0 mi WSW 5.8 mph - N/A   Clear
5:55 PM 33.8 °F 27.7 °F 32.0 °F 93% 29.77 in 10.0 mi West 6.9 mph - N/A   Clear
6:15 PM 33.8 °F 26.4 °F 33.8 °F 100% 29.78 in 10.0 mi WSW 9.2 mph - N/A   Scattered Clouds
6:35 PM 32.0 °F 24.2 °F 32.0 °F 100% 29.78 in 10.0 mi WSW 9.2 mph - N/A   Partly Cloudy
6:55 PM 32.0 °F 23.6 °F 32.0 °F 100% 29.79 in 10.0 mi WSW 10.4 mph - N/A   Clear
7:15 PM 32.0 °F 23.6 °F 32.0 °F 100% 29.79 in 10.0 mi West 10.4 mph - N/A   Clear
7:35 PM 32.0 °F 24.2 °F 32.0 °F 100% 29.79 in 10.0 mi WSW 9.2 mph - N/A   Clear
7:55 PM 30.2 °F 22.6 °F 30.2 °F 100% 29.79 in 10.0 mi WSW 8.1 mph - N/A   Clear
8:15 PM 32.0 °F 23.6 °F 30.2 °F 93% 29.79 in 10.0 mi WSW 10.4 mph - N/A   Clear
8:35 PM 30.2 °F 21.3 °F 28.4 °F 93% 29.79 in 10.0 mi West 10.4 mph - N/A   Clear
8:55 PM 28.4 °F 23.3 °F 28.4 °F 100% 29.79 in 10.0 mi WSW 4.6 mph - N/A   Clear
9:15 PM 28.4 °F 23.3 °F 28.4 °F 100% 29.80 in 10.0 mi West 4.6 mph - N/A   Clear
9:35 PM 28.4 °F 22.2 °F 26.6 °F 93% 29.80 in 10.0 mi West 5.8 mph - N/A   Clear
9:55 PM 26.6 °F 19.1 °F 26.6 °F 100% 29.80 in 10.0 mi WSW 6.9 mph - N/A   Clear
10:15 PM 26.6 °F 21.2 °F 26.6 °F 100% 29.80 in 10.0 mi WSW 4.6 mph - N/A   Clear
10:35 PM 24.8 °F 14.6 °F 24.8 °F 100% 29.80 in 10.0 mi SW 10.4 mph - N/A   Clear
10:55 PM 24.8 °F 14.6 °F 24.8 °F 100% 29.79 in 10.0 mi SW 10.4 mph - N/A   Clear
11:55 PM 24.8 °F 19.1 °F 24.8 °F 100% 29.78 in 10.0 mi West 4.6 mph - N/A   Clear